Miscellaneous Local Product
Issued by NWS North Platte, NE

Home | Current Version | Previous Version | Text Only | Print | Product List | Glossary On
Versions: 1 2 3 4 5 6 7 8 9 10 11 12 13 14 15 16 17 18 19 20 21 22 23 24 25 26 27 28 29 30 31 32 33 34 35 36 37 38 39 40 41 42 43 44 45 46 47 48 49 50
913
AXUS43 KLBF 171510
MISLBF


WESTERN AND NORTH CENTRAL NEBRASKA HOURLY WEATHER ROUNDUP
NATIONAL WEATHER SERVICE NORTH PLATTE NE
900 AM CST SUN DEC 17 2017

NOTE: "FAIR" INDICATES FEW OR NO CLOUDS BELOW 12,000 FEET WITH NO
SIGNIFICANT WEATHER AND/OR OBSTRUCTIONS TO VISIBILITY.

NOTE: STATIONS NOT REPORTING VARIABLES SUCH AS SKY/WEATHER OR
PRESSURE ARE PROVIDED BY RAWS AND APRS NETWORKS AND ARE NOT UNDER
NATIONAL WEATHER SERVICE QUALITY CONTROL.

...OBSERVATIONS IN AND NEAR THE EASTERN PANHANDLE OF NEBRASKA...

CITY           SKY/WX    TMP DP  RH WIND       PRES   REMARKS
PINE RIDGE     CLOUDY    31  29  92 CALM      30.03S
GORDON         CLOUDY    31  29  91 CALM      30.02S
CHADRON        CLOUDY    30  28  92 CALM      30.03S
ALLIANCE       FOG       29  29 100 CALM      30.01S VSB 1/4
SIDNEY         CLOUDY    30  29  96 W3        30.03R
$$

...OBSERVATIONS IN NORTHERN NEBRASKA AND FAR SOUTHERN SOUTH DAKOTA...

CITY           SKY/WX    TMP DP  RH WIND       PRES   REMARKS
WINNER         CLOUDY    34  31  88 SW3       30.06R
VALENTINE      CLOUDY    34  31  88 NW3       30.04S
THEDFORD       CLOUDY    34  32  94 CALM      30.03S
AINSWORTH      CLOUDY    32  32 100 CALM      30.03F FOG
O`NEILL        FOG       29  29 100 CALM      30.02F VSB<1/4
ORD            CLOUDY    33  30  88 NW8       30.04R WCI  26
BROKEN BOW     FLURRIES  34  31  88 CALM      30.03R
VALENTINE NWR    N/A     31  30  95 NW5         N/A  WCI  26
HALSEY           N/A     33  30  90 CALM        N/A
BUTTE            N/A     31  30  96 NW3         N/A
EWING            N/A     30  29  94 N9          N/A  WCI  22
$$

...OBSERVATIONS IN SOUTHWEST NEBRASKA AND FAR NORTHEAST COLORADO...

CITY           SKY/WX    TMP DP  RH WIND       PRES   REMARKS
WRAY           CLOUDY   N/A N/A N/A N5        30.04S
HOLYOKE        CLOUDY    34  32  93 NW7       30.05R FOG     WCI  28
IMPERIAL       CLOUDY    34  33  96 N6        30.04R WCI  29
OGALLALA       CLOUDY    35  33  94 CALM      30.04S
NORTH PLATTE   CLOUDY    35  32  88 NW3       30.04R
MCCOOK         CLOUDY    36  31  82 N9        30.04S WCI  29
LEXINGTON      CLOUDY    32  30  92 NW6       30.04S WCI  26
STAPLETON        N/A     31  30  96 CALM        N/A
GOTHENBURG       N/A     34  29  82 CALM        N/A
CALLAWAY         N/A     33  30  90 CALM        N/A
$$

...OBSERVATIONS IN CENTRAL LINCOLN COUNTY AREA...

CITY           SKY/WX    TMP DP  RH WIND       PRES   REMARKS
N.P. AIRPORT   CLOUDY    35  32  88 NW3       30.04R
N.P. DOWNTOWN    N/A     33  30  90 CALM        N/A
N.P. SOUTHEAST   N/A     33  31  94 CALM        N/A
N.P. HILLCREST   N/A     33  31  93 CALM        N/A
$$

...SOME OBSERVATIONS FROM AROUND THE REGION...

CITY           SKY/WX    TMP DP  RH WIND       PRES   REMARKS
DENVER         CLOUDY    29  26  89 CALM      30.01S
GRAND JUNCTION CLOUDY    15   4  61 E6        30.07R WCI   6
LARAMIE        FOG       17  16  95 CALM      29.94S VSB<1/4
CHEYENNE       CLOUDY    25  24  96 SW7       29.96S WCI  17
CASPER         CLOUDY    20  16  84 W14       29.95F WCI   7
BISMARCK       CLOUDY    18  16  92 CALM      30.02F
RAPID CITY     CLOUDY    29  25  85 S6        30.01S WCI  23
PIERRE         CLOUDY    31  30  96 CALM      30.05R
SIOUX FALLS    CLOUDY    25  24  96 NE5       30.05S FOG     WCI  19
OMAHA          CLOUDY    30  23  75 N5        30.04R WCI  25
GRAND ISLAND   CLEAR     27  25  92 NW3       30.04R
SCOTTSBLUFF    CLOUDY    31  30  96 S6        30.03S WCI  25
KANSAS CITY    CLOUDY    43  42  97 S9        30.03R FOG
HILL CITY      MOCLDY    32  29  88 NW10      30.04R WCI  24
WICHITA        CLOUDY    45  42  89 SW7       30.03R
DODGE CITY     CLOUDY    29  26  89 N9        30.01R FOG     WCI  20
OKLAHOMA CITY  CLOUDY    43  41  93 CALM      30.01R
DALLAS         CLOUDY    47  45  93 S8        30.06S FOG
AMARILLO       CLOUDY    30  25  81 NW13      29.99R WCI  20
$$




USA.gov is the U.S. government's official web portal to all federal, state and local government web resources and services.